RH
66 70 75 80 88 95 98 98 97 93 88 81 79 83 83 79 69 68 73 67 57 49 37 30 34 38 38 41 45 48 51 55 57 57 57 55 52 50 48 47 45 43 41 40 40 39 38 38 37 37 37 37 36 35 33 30 27 25 22 20 18 16 15 14 12 11 12 14 17 17 16 19 19 17 18 20 20 22 29 38 52 72 86 89 88 88 89 89
66 71 75 81 88 96 102 106 106 102 100 97 92 85 86 85 78 76 79 76 62 42 34 39 46 51 50 48 49 49 50 51 53 53 52 50 49 47 45 43 42 41 40 40 40 39 39 38 37 35 32 28 24 20 16 13 10 9 8 7 6 6 6 5 5 6 6 8 10 10 10 11 10 11 11 15 23 28 46 69 86 97 99 99 100 99 97 94
67 71 76 81 86 93 101 108 109 109 111 105 94 86 91 94 86 77 72 66 52 41 49 55 58 60 57 52 51 50 48 48 48 47 46 45 44 43 42 42 41 41 40 40 40 39 37 32 27 21 15 11 7 5 4 3 3 3 3 4 4 5 5 5 7 7 8 10 10 10 13 14 17 25 30 44 64 72 85 102 104 103 102 103 103 100 97 92
64 67 72 77 81 86 94 103 106 108 107 93 83 86 93 92 86 73 57 48 49 58 67 67 67 65 58 53 51 49 47 46 45 44 43 43 43 43 43 43 42 41 41 40 36 30 22 15 9 6 4 3 3 4 4 5 5 6 6 7 8 7 8 9 10 12 15 18 21 28 32 31 37 51 67 85 98 98 101 104 102 103 103 101 97 90 87 86
59 61 65 70 74 80 87 95 98 95 88 78 76 81 83 79 71 60 52 54 64 73 75 72 69 62 55 51 48 46 46 45 44 44 44 45 45 44 44 43 43 41 36 28 19 12 7 4 4 4 5 6 7 7 7 8 8 9 9 10 11 11 13 16 20 26 31 34 45 59 56 50 59 73 86 98 102 103 105 103 101 101 99 96 90 82 77 76
55 58 61 67 73 79 83 84 81 74 68 65 63 62 62 60 57 57 62 70 74 77 76 70 62 56 52 49 46 46 45 45 45 46 47 46 46 46 46 43 37 28 18 10 5 4 4 5 7 8 9 9 10 11 11 12 12 14 15 17 18 20 26 30 34 43 48 52 65 77 68 61 75 88 86 84 89 97 102 101 96 91 87 85 82 78 74 71
49 52 53 56 58 58 57 53 49 45 42 42 42 44 50 56 63 71 75 76 74 73 69 61 55 52 49 47 47 46 46 47 47 47 48 48 47 44 37 27 17 9 4 4 5 7 8 10 11 11 13 14 15 17 18 19 20 23 25 28 33 38 45 46 45 52 57 63 72 77 71 68 81 94 90 79 77 81 85 87 83 78 76 75 74 73 71 70
32 32 29 27 26 25 23 24 25 27 30 37 45 55 64 70 76 78 75 71 66 62 58 54 52 50 49 49 48 48 49 48 48 49 48 43 36 25 15 8 4 4 6 8 10 13 15 18 19 20 22 25 29 31 33 36 36 39 44 47 52 58 61 59 58 61 64 68 73 74 71 72 80 87 87 81 76 74 74 77 76 73 72 71 72 71 70 70
16 15 15 15 17 20 25 30 36 44 53 62 70 75 76 74 72 69 66 61 57 54 52 51 51 51 51 50 49 50 50 49 47 41 32 22 13 6 4 5 7 10 13 18 23 27 32 36 38 41 45 51 58 59 61 65 66 69 75 74 75 80 81 79 78 78 79 79 80 80 76 76 80 82 83 82 78 78 76 75 76 76 75 73 72 71 70 70
22 24 28 33 38 44 50 57 63 70 76 78 77 74 69 64 60 57 55 53 52 51 51 51 51 51 50 50 50 49 45 37 28 17 10 5 4 6 9 13 18 23 30 37 42 45 49 52 54 58 62 68 74 75 73 77 79 79 81 82 82 84 83 82 82 81 83 86 87 88 82 76 78 81 87 89 86 86 85 82 81 80 79 78 77 75 74 73
38 43 47 51 56 60 64 69 72 73 72 68 63 57 53 51 50 49 49 50 50 50 51 51 51 51 49 46 41 33 22 13 7 4 5 8 12 17 22 29 36 42 50 55 55 53 54 56 59 65 69 72 75 74 71 72 75 72 68 69 73 76 74 71 72 72 74 78 81 84 83 77 76 79 84 88 85 84 85 84 83 83 83 81 81 81 80 80
44 47 49 52 55 57 60 60 60 57 54 50 47 45 45 45 46 47 48 50 50 51 52 51 49 44 35 25 17 10 5 4 6 10 15 21 26 32 37 43 49 55 58 58 56 55 59 62 65 70 74 74 76 75 74 73 74 73 69 67 70 75 79 77 76 77 77 79 80 81 84 81 77 77 77 78 78 77 77 77 77 76 77 77 78 78 79 79
36 38 39 41 44 45 45 44 43 41 40 40 40 41 43 45 47 49 50 51 50 48 44 38 29 20 11 6 4 5 7 12 16 22 27 33 37 42 46 51 56 60 61 62 62 63 66 69 70 73 73 73 74 73 73 72 72 74 74 73 73 74 79 81 79 78 78 82 83 84 88 88 84 80 78 78 77 76 75 74 73 72 71 71 71 71 72 72
25 27 28 30 31 32 33 33 33 33 34 37 39 42 44 45 46 45 43 38 33 27 19 13 7 5 4 6 10 14 18 23 28 32 37 41 46 51 54 58 61 64 65 65 66 67 68 71 73 73 74 75 77 78 80 81 82 84 86 87 88 87 88 89 89 86 83 86 90 93 97 99 97 93 88 85 85 84 82 80 78 75 73 71 71 71 70 68
19 21 23 24 25 26 27 27 28 29 31 33 34 35 34 32 28 24 19 14 10 7 4 4 5 8 11 15 21 25 29 34 38 42 47 53 57 60 62 64 66 67 68 69 72 75 78 82 86 88 91 93 95 97 98 99 100 101 102 102 102 102 102 101 102 102 100 101 101 102 105 105 104 104 102 98 95 92 90 88 87 84 81 79 78 77 75 73
15 16 17 17 18 18 18 18 18 18 18 18 17 15 13 10 8 6 4 4 4 5 7 10 13 19 24 28 31 35 41 46 50 55 59 62 64 66 69 73 77 79 82 84 86 89 91 94 98 100 101 102 103 102 101 101 100 99 99 100 99 98 99 99 99 100 101 101 99 97 98 96 96 98 96 93 89 86 83 80 79 79 77 75 75 76 75 75
9 9 9 8 8 8 8 7 7 6 6 5 4 3 3 3 3 4 5 8 10 12 16 19 23 29 34 39 44 48 52 55 59 63 67 71 73 76 80 85 89 89 90 91 91 91 91 92 93 93 93 93 93 92 91 90 89 88 88 89 89 87 87 88 87 87 86 85 83 80 78 75 74 74 72 71 69 68 66 64 63 63 62 62 62 62 62 63
4 4 4 4 4 4 4 4 4 3 3 3 3 4 5 6 8 10 13 15 18 21 25 30 35 40 45 52 57 59 60 64 68 74 79 83 84 85 85 86 85 84 84 84 84 83 82 81 80 79 78 76 75 73 73 72 71 71 70 70 69 67 64 64 63 63 62 61 59 57 55 53 51 51 50 50 49 49 49 48 48 47 47 47 47 47 47 47
4 4 4 4 4 5 5 5 5 6 6 7 8 10 12 14 17 19 22 26 30 36 41 46 51 54 56 60 62 65 69 74 79 82 84 84 83 82 80 78 76 74 73 71 69 66 64 63 61 59 57 55 53 52 51 49 48 48 47 46 45 45 44 42 42 41 41 43 42 41 41 39 37 37 36 36 36 36 36 35 35 35 35 35 35 35 35 35
4 4 5 5 5 6 6 7 8 10 13 15 17 19 22 26 29 33 36 41 47 52 56 59 60 60 62 65 68 71 74 76 77 78 77 74 72 69 67 65 62 60 57 55 53 50 49 48 46 45 43 41 40 38 38 37 36 35 34 34 33 33 33 33 33 31 30 32 33 34 35 33 30 30 29 28 27 27 27 27 27 26 26 26 26 26 26 27
6 6 6 7 8 9 10 12 15 18 22 26 30 33 35 39 43 46 48 53 57 59 62 63 63 65 66 68 70 71 71 70 68 67 65 62 59 56 54 52 50 48 46 45 43 42 40 39 37 35 34 33 32 31 31 30 30 30 30 31 32 32 34 35 36 36 35 35 35 35 36 35 33 33 32 30 29 29 30 31 30 28 27 27 27 27 28 28
9 10 12 13 15 18 21 25 28 31 35 40 46 48 49 53 56 57 57 61 64 63 65 65 63 64 65 64 63 62 61 59 57 56 53 51 49 47 45 44 42 41 39 36 35 34 32 32 32 31 31 31 31 32 33 33 35 37 39 41 42 42 43 44 44 43 42 40 39 38 38 37 35 35 34 33 32 31 31 31 31 30 28 28 28 28 29 29
17 20 23 25 28 31 35 39 43 48 51 55 59 60 62 63 63 63 62 63 64 62 61 59 57 57 57 56 54 52 51 49 48 47 45 43 41 39 37 35 34 32 31 30 30 31 32 33 34 36 37 38 40 42 42 42 41 41 42 41 39 38 36 35 33 32 30 29 28 27 26 25 24 23 22 20 19 18 18 18 17 18 17 17 17 17 17 17
29 33 37 40 43 46 50 55 59 61 63 64 65 64 65 64 62 61 60 59 58 56 55 54 52 50 49 48 46 45 43 41 40 37 35 33 31 30 29 29 30 31 33 34 36 39 40 42 43 44 44 44 43 41 38 36 34 31 29 27 25 24 22 21 20 19 19 19 18 18 18 17 17 17 16 16 14 13 12 12 13 13 13 13 12 11 11 10
41 46 51 55 57 60 62 64 64 62 62 62 62 61 60 59 58 57 56 54 53 51 50 47 45 43 41 39 37 35 33 31 30 29 28 28 29 31 33 36 39 41 44 45 45 45 44 42 40 38 35 32 29 27 25 23 22 22 20 19 19 18 18 17 17 18 17 18 17 16 17 16 16 17 16 16 16 15 13 12 13 13 12 12 12 11 11 10
52 56 59 62 63 64 62 60 59 58 58 58 58 58 57 56 56 54 51 49 46 43 41 39 37 35 33 31 29 28 28 28 29 31 33 36 39 43 46 47 47 46 45 42 39 36 32 29 27 24 22 21 20 19 19 19 19 19 19 19 19 19 20 19 19 19 18 19 19 17 16 15 16 17 16 16 16 15 14 13 12 11 10 10 10 10 9 9
58 59 61 62 62 60 58 57 57 57 57 56 56 56 54 52 49 46 43 40 37 35 33 32 30 29 28 28 28 28 30 33 36 40 44 47 49 48 46 43 40 36 32 28 26 24 22 21 20 19 18 18 18 18 20 21 22 23 22 23 24 25 25 25 25 24 23 24 24 21 19 18 19 20 19 18 18 17 17 16 13 12 10 10 9 9 9 8
60 60 60 59 58 58 56 56 56 55 54 53 51 48 45 42 39 36 34 32 30 29 28 28 27 28 28 29 31 35 39 44 47 49 49 47 43 39 34 30 27 25 23 22 21 20 18 18 18 19 20 21 22 23 25 26 27 27 27 28 29 30 31 30 30 30 29 30 30 27 25 23 22 24 23 22 22 21 20 18 15 14 12 11 11 10 10 9
60 59 58 57 57 56 54 53 51 48 46 44 41 38 36 34 32 30 29 28 28 29 29 30 30 31 33 38 44 48 50 50 48 45 40 35 31 27 24 22 21 21 20 19 19 19 18 20 23 25 27 28 29 29 30 30 30 31 32 33 34 33 33 33 32 32 32 33 34 30 27 26 23 25 26 25 26 26 24 21 18 16 14 14 13 13 12 11
59 58 57 56 54 51 49 45 42 40 38 36 34 33 31 29 28 28 28 29 30 30 30 32 35 40 45 50 51 49 46 41 36 32 27 24 22 21 21 21 22 23 23 24 25 26 27 28 31 31 32 32 32 32 32 31 31 31 31 31 31 31 31 31 31 31 32 35 37 34 30 27 24 24 25 25 26 26 24 22 20 18 16 14 14 13 13 13
57 55 53 50 46 43 40 37 36 35 33 32 31 29 28 28 28 29 30 30 30 31 35 41 46 50 50 48 43 38 34 30 27 24 23 24 25 26 28 29 31 34 37 38 37 36 34 33 33 32 31 31 31 31 31 30 29 29 30 28 28 28 28 29 29 29 30 34 36 34 29 26 24 22 21 21 20 19 19 18 17 17 15 14 13 12 12 12
50 47 44 41 38 36 35 34 33 31 30 29 27 26 28 29 28 29 30 32 36 43 48 51 50 47 42 37 33 29 27 25 25 25 27 29 32 33 34 34 35 36 38 39 38 36 33 32 32 31 30 29 29 29 29 29 29 29 29 28 26 25 24 24 24 24 25 27 30 29 24 22 21 19 18 18 16 15 14 14 13 13 12 12 12 11 12 11
42 39 38 36 34 34 33 32 30 29 28 26 26 28 28 27 28 33 38 43 49 51 50 46 41 37 33 30 27 25 25 27 28 30 32 33 34 34 33 33 33 33 33 33 33 33 32 30 31 31 30 28 26 26 26 26 26 26 26 25 24 22 21 21 20 19 20 21 24 25 21 18 17 16 15 15 13 12 11 10 10 10 10 10 10 10 11 11
39 37 36 34 34 33 30 29 29 27 26 27 29 27 25 31 39 46 50 51 50 46 42 38 33 30 28 26 27 28 30 32 33 33 34 34 33 33 33 32 31 30 30 29 30 31 31 29 29 30 28 27 26 26 26 25 25 26 26 25 25 24 22 22 21 19 17 16 20 23 22 20 18 14 14 13 10 10 9 9 9 8 8 8 8 8 9 9
38 36 35 34 33 31 29 29 27 26 28 28 25 25 34 47 54 53 51 47 43 39 34 31 28 26 27 29 32 34 34 35 35 34 34 33 32 31 30 29 28 28 28 29 30 32 34 33 31 32 32 29 29 31 31 31 31 31 30 30 28 28 27 26 26 26 23 20 21 24 24 23 21 16 14 13 10 10 10 9 9 8 7 7 7 7 7 8
37 36 35 34 31 30 29 26 25 26 26 23 26 40 54 58 54 49 45 40 36 32 28 27 27 29 31 34 35 36 35 35 34 33 32 31 30 29 29 28 28 28 29 31 31 33 38 39 37 38 40 37 37 39 38 35 35 34 33 33 32 33 34 32 30 30 28 24 22 23 21 20 20 15 12 13 11 10 10 9 8 8 7 7 7 7 7 8
37 36 34 32 29 28 25 24 26 26 25 31 48 60 59 52 47 42 38 33 29 27 27 29 32 34 36 36 36 35 34 33 32 31 30 30 29 29 29 29 30 32 32 33 34 35 39 43 44 43 44 43 41 41 42 42 42 39 36 35 35 36 38 37 33 29 26 23 20 19 17 16 17 14 11 12 11 10 9 8 7 7 7 7 7 7 7 7
36 34 31 29 27 25 24 26 27 28 38 54 62 58 49 44 40 35 31 28 27 28 31 34 36 36 36 35 35 33 32 31 30 30 30 30 31 31 32 33 33 34 35 35 35 36 37 42 45 44 42 41 39 40 44 49 49 45 42 42 41 39 37 35 32 28 25 21 17 16 15 15 16 14 12 11 9 8 7 6 6 6 5 5 5 5 5 4
34 31 28 27 25 24 27 32 35 42 56 62 54 45 42 38 33 29 27 27 29 32 34 36 36 35 34 33 32 31 30 29 29 29 30 32 34 35 37 37 36 35 35 36 37 37 37 38 43 46 44 41 39 40 42 45 44 42 44 46 46 45 42 38 36 33 29 24 18 15 13 13 13 11 9 8 6 6 5 5 4 4 4 4 3 3 3 3
30 28 27 26 25 29 37 43 49 57 59 51 43 40 36 32 28 27 27 29 33 35 35 35 34 33 32 31 30 30 30 30 31 32 33 35 37 39 40 38 37 37 37 38 39 39 39 38 41 48 50 47 45 44 43 42 40 39 42 44 44 44 42 37 33 32 29 23 17 12 9 10 12 11 9 7 6 6 6 5 4 4 3 3 3 3 3 3
28 27 27 27 32 43 51 55 57 56 49 41 39 36 31 28 27 27 30 33 35 35 33 32 31 31 32 32 32 32 33 34 34 36 38 39 40 41 41 39 39 40 41 41 41 40 39 39 43 49 51 53 55 55 56 55 50 45 44 42 39 36 31 27 23 21 19 15 12 9 7 11 15 12 9 7 7 7 7 6 4 3 3 3 3 3 3 3
27 28 29 36 49 58 58 56 54 48 41 38 36 31 28 27 27 31 34 35 33 31 30 31 33 34 35 36 37 37 37 38 40 42 44 44 44 43 43 44 43 43 43 42 41 41 40 41 46 52 55 63 71 71 67 62 52 44 41 40 37 33 28 26 21 17 15 13 12 9 8 12 15 12 9 8 7 7 6 5 4 3 3 3 3 3 3 3
28 32 41 54 63 61 55 52 47 41 38 36 32 28 27 28 31 35 34 32 30 30 33 36 37 37 38 39 39 39 41 44 48 50 51 51 51 51 51 51 49 48 48 48 46 44 44 42 45 50 52 62 78 80 73 66 57 47 44 43 41 36 31 30 27 23 19 16 13 11 9 11 13 11 9 8 6 5 5 4 3 3 3 3 3 3 3 2
34 46 59 66 63 56 51 48 42 39 37 33 29 27 30 33 34 33 30 30 32 35 39 40 39 40 40 39 40 41 45 51 54 55 57 60 61 59 58 56 55 56 55 53 51 49 48 47 50 54 49 45 54 58 54 52 51 47 45 44 42 37 34 33 31 26 19 15 15 14 10 10 11 9 7 6 5 4 4 3 3 3 3 3 3 3 3 2
51 63 67 64 58 52 48 43 40 39 35 30 28 31 34 35 32 30 30 34 38 40 41 41 42 43 42 42 45 48 50 53 55 57 59 63 64 62 62 61 59 61 61 58 55 54 56 55 58 65 62 50 48 49 42 40 43 45 46 46 45 41 38 35 32 25 17 14 15 14 10 8 8 7 6 5 4 3 3 3 3 3 3 3 3 3 3 2
67 70 65 58 53 48 44 41 40 38 32 29 32 34 35 32 30 31 35 40 41 40 42 44 45 45 46 49 52 53 53 51 55 61 63 65 67 64 64 65 63 63 64 64 61 61 65 64 64 72 74 65 62 63 56 50 49 47 46 46 45 42 39 35 30 23 16 13 13 12 9 7 6 5 4 4 3 3 3 2 3 3 3 3 3 3 3 2
70 66 59 53 49 44 43 42 40 34 30 31 34 34 32 30 32 37 40 41 41 42 46 48 47 49 51 51 52 54 56 59 65 70 71 74 78 75 72 74 73 71 71 73 71 71 76 75 72 80 81 71 69 73 67 58 52 47 47 48 45 41 37 32 26 20 15 12 11 9 8 6 5 4 4 3 3 2 3 2 2 3 3 3 3 3 3 3
66 60 54 49 46 44 44 42 37 32 31 34 35 32 31 32 36 40 41 42 45 47 49 49 50 51 50 49 50 54 62 74 82 82 79 78 81 84 85 81 78 76 76 78 78 80 88 88 80 82 84 73 70 75 70 60 52 48 49 49 43 39 34 27 23 17 12 11 10 8 7 5 4 4 3 3 3 2 2 2 2 3 3 3 3 3 3 2
61 55 50 48 45 44 45 40 33 32 34 34 32 31 33 35 38 40 41 44 49 51 51 50 51 50 49 51 56 62 68 76 80 78 75 71 70 76 81 75 71 72 73 78 84 88 96 96 82 78 83 76 72 74 69 59 54 50 48 46 39 35 32 26 21 14 10 10 9 7 6 5 4 4 3 3 3 2 2 2 2 3 3 2 2 2 2 2
56 51 49 46 45 46 43 35 32 34 34 32 32 33 35 37 38 40 44 48 52 53 52 50 49 51 56 66 77 83 80 73 69 69 69 66 63 65 68 65 63 67 70 78 90 96 101 99 84 74 76 74 72 74 67 57 54 52 46 41 35 30 28 24 17 11 7 7 7 6 5 4 4 4 3 3 3 2 2 2 2 3 3 2 2 2 2 2
52 51 49 45 46 44 37 32 34 34 32 32 34 36 37 37 38 42 50 54 55 54 51 49 52 61 74 88 97 95 83 71 71 74 72 66 61 60 63 63 61 64 71 81 95 102 101 97 85 73 68 65 66 71 66 56 55 56 47 36 30 26 23 20 15 9 7 7 6 6 5 4 4 3 3 4 3 2 2 2 2 3 2 3 2 2 2 2
54 51 46 45 45 39 33 33 34 33 32 33 36 37 37 38 41 47 55 59 55 52 51 54 63 77 92 101 99 87 74 71 77 80 76 70 65 64 69 69 66 69 77 86 98 104 102 95 85 73 66 62 60 66 69 63 60 58 47 32 24 20 16 16 14 8 7 8 6 5 5 4 4 3 3 3 3 2 3 2 2 2 2 3 3 2 2 2
Wind_Speed
41 41 41 42 42 42 42 42 41 41 41 41 42 43 44 46 47 46 47 48 48 48 47 46 45 46 46 45 45 44 44 44 45 46 47 48 49 50 51 52 54 55 57 59 61 62 64 66 67 68 70 72 73 74 75 75 75 75 75 75 75 74 73 73 71 68 66 66 67 67 67 67 67 67 65 65 65 63 62 62 59 57 58 58 58 58 59 62
41 42 42 43 44 44 45 45 44 44 44 44 44 45 46 47 48 48 48 49 50 49 47 45 44 44 46 45 45 45 45 46 46 48 49 50 51 52 53 55 56 58 60 62 64 66 68 69 70 71 72 73 72 72 71 70 69 68 68 67 66 65 64 63 61 59 57 57 58 59 59 58 57 56 55 54 54 53 52 53 52 52 54 55 56 57 58 61
42 42 43 44 46 46 47 47 47 47 47 47 48 48 48 48 49 50 49 49 49 48 46 45 43 44 45 45 45 46 47 47 48 50 50 51 53 54 56 58 59 61 63 64 66 68 70 70 70 70 68 67 65 63 61 60 58 58 58 57 56 55 55 54 51 50 49 49 51 51 50 49 48 46 46 44 44 46 46 48 50 51 53 54 55 56 58 61
43 44 45 46 47 48 48 49 49 50 50 50 50 49 50 50 51 51 50 48 47 45 45 45 44 44 45 46 46 47 48 49 50 51 52 53 55 57 59 61 62 64 65 67 68 69 68 66 64 61 58 56 54 52 50 49 49 48 47 46 47 47 46 44 43 42 41 41 42 43 43 42 41 40 40 39 39 43 45 47 49 51 53 54 56 57 58 60
44 45 45 46 47 48 49 50 51 51 52 51 50 50 50 51 51 50 48 46 44 44 45 45 45 46 46 47 47 48 49 50 51 53 54 56 58 60 61 63 65 66 67 66 65 62 59 56 52 50 48 46 44 42 41 40 39 39 38 37 38 38 37 36 35 35 35 36 37 38 39 39 38 38 38 38 38 41 46 48 50 51 52 54 56 57 57 58
45 46 46 47 48 49 50 51 51 52 51 51 50 49 49 49 49 48 45 44 44 44 45 46 46 47 48 48 48 49 50 51 53 55 56 58 60 62 64 65 65 64 61 58 54 50 47 45 42 40 38 37 35 34 32 32 31 31 30 30 31 31 31 31 31 31 32 33 34 35 37 36 35 38 39 39 39 41 46 49 50 51 52 53 55 56 57 57
44 45 46 46 47 48 48 49 49 48 48 47 46 46 45 45 45 45 44 44 44 44 45 46 47 48 49 49 50 51 52 54 55 57 59 61 62 63 63 62 59 55 50 46 43 40 38 36 34 32 31 29 28 27 26 26 26 26 25 26 27 27 28 29 29 29 30 31 33 34 35 34 34 38 41 40 40 42 45 48 49 50 51 53 54 55 56 56
41 42 43 43 43 43 43 44 43 42 42 41 41 42 42 42 43 43 44 44 44 45 46 47 48 49 50 51 52 53 55 56 58 59 61 62 61 59 56 51 46 42 39 36 33 31 29 27 26 25 24 23 22 22 22 22 22 22 22 22 22 24 25 27 27 27 27 29 32 33 32 32 33 36 41 42 42 42 44 46 48 49 52 53 53 55 55 56
36 36 37 37 37 37 37 37 37 37 37 38 39 40 41 41 42 43 43 44 45 46 47 47 49 50 52 53 54 56 57 58 59 60 59 56 52 47 42 38 34 31 29 26 24 23 21 20 20 20 19 19 18 19 18 19 19 19 20 21 20 22 24 25 26 26 27 29 32 35 34 33 34 37 41 44 45 46 47 48 50 52 54 56 56 57 58 59
30 30 31 31 31 32 33 34 34 35 36 38 39 40 40 41 42 43 44 45 46 47 48 49 51 52 54 55 56 58 58 57 55 52 48 43 38 33 30 26 24 22 20 19 18 18 18 18 18 18 18 18 18 19 19 20 21 21 21 22 23 25 26 27 29 29 30 32 35 38 39 38 38 39 43 47 48 50 51 52 53 54 56 59 60 61 61 62
27 28 29 29 30 31 32 34 35 36 38 38 39 40 40 41 42 44 45 46 47 48 50 51 53 54 55 56 56 55 52 47 42 38 33 28 25 22 20 18 17 16 16 16 17 18 19 19 19 19 20 21 21 22 23 24 25 26 26 26 28 30 32 32 33 34 34 36 38 41 44 44 43 43 46 50 52 53 55 56 57 58 59 61 62 64 65 66
27 28 29 30 31 32 34 35 36 37 38 39 39 40 41 42 44 45 46 48 49 51 52 53 54 54 53 50 46 42 37 32 27 24 20 18 16 15 15 14 14 15 16 18 19 20 21 21 22 22 23 24 25 26 27 28 30 31 32 32 32 33 36 38 38 39 39 41 42 44 48 51 50 49 51 53 55 57 59 60 61 62 63 64 66 67 68 68
27 28 29 30 32 34 35 36 37 37 38 39 40 41 43 44 45 47 49 50 51 52 52 51 49 45 40 35 31 27 23 20 17 16 14 14 14 14 14 14 15 17 18 20 21 22 23 24 24 25 26 28 29 30 32 33 34 36 37 38 39 38 40 42 43 43 43 45 47 48 51 56 57 57 57 58 60 62 63 65 65 66 67 67 69 70 71 71
27 28 30 32 33 34 35 36 37 38 39 40 42 43 45 46 47 48 49 49 48 46 44 40 35 30 26 22 19 17 15 14 13 12 13 13 13 14 15 16 18 19 21 22 23 24 26 27 28 29 31 32 34 35 37 38 39 41 42 43 45 45 46 47 48 49 49 49 51 52 55 59 62 63 63 63 65 67 69 70 71 72 72 72 73 74 75 76
27 29 30 31 32 33 34 36 37 38 40 41 42 43 44 44 44 43 42 39 37 33 30 26 22 18 15 13 12 11 10 10 11 11 12 13 14 15 17 18 20 22 24 26 27 29 31 32 33 34 35 37 38 39 40 41 42 43 45 47 48 49 50 51 52 54 56 56 56 57 59 62 65 68 69 69 69 71 74 75 76 77 77 78 78 79 81 82
27 28 29 30 31 32 33 34 35 36 36 37 37 37 37 35 33 31 28 25 22 20 17 14 11 9 8 8 8 8 9 10 11 12 13 14 16 18 20 22 24 26 28 30 32 33 34 34 35 36 37 38 40 41 42 44 45 46 47 49 51 52 53 55 57 58 61 63 63 64 65 67 69 72 74 74 74 75 77 79 80 81 82 82 83 84 86 88
23 24 24 25 25 26 26 27 27 27 27 27 27 26 25 23 20 18 15 12 10 9 7 6 5 5 5 6 8 9 10 11 12 14 16 18 20 22 24 25 28 29 31 32 34 35 36 37 38 39 41 42 43 45 46 47 49 51 51 53 56 57 57 58 60 63 65 68 69 70 73 74 75 77 78 78 79 79 81 82 84 85 86 87 87 89 90 92
17 17 17 17 18 18 18 17 17 17 16 16 15 14 12 10 8 6 4 3 2 2 3 4 6 6 7 7 9 11 12 14 16 17 20 22 23 25 27 28 30 32 33 35 37 38 39 40 42 43 45 46 48 49 50 52 53 55 56 57 60 63 64 64 64 66 69 72 74 75 79 81 81 82 82 82 83 84 84 86 87 89 91 92 93 94 95 96
9 10 10 11 11 10 10 9 8 6 5 4 4 3 3 2 2 3 3 4 5 6 7 7 7 8 9 10 12 14 16 17 19 20 22 24 26 28 30 31 33 35 37 39 40 42 43 45 46 48 49 51 52 54 55 57 58 59 61 62 63 65 70 71 71 71 72 75 79 80 83 87 87 87 87 87 88 89 89 90 91 93 95 96 97 98 99 100
6 6 7 7 8 8 8 9 9 10 10 9 9 8 8 8 7 7 7 8 8 8 8 8 9 11 13 14 16 17 19 20 21 23 25 27 29 31 33 35 37 39 41 43 45 46 48 49 51 53 54 56 57 58 60 61 63 64 65 67 67 67 71 74 75 76 76 76 79 82 86 90 90 90 90 90 91 93 93 94 95 96 97 98 99 100 101 102
10 11 11 12 12 13 14 14 14 15 15 14 13 11 10 10 9 8 8 9 9 9 10 11 13 14 16 17 18 19 21 22 23 26 28 30 32 35 37 39 41 43 45 47 49 50 52 53 55 56 58 59 60 61 63 64 66 67 68 69 71 71 72 75 78 79 79 79 80 83 86 91 92 92 93 92 93 94 96 97 98 99 100 100 101 101 102 104
19 19 19 19 19 19 19 18 18 17 16 15 14 12 11 11 10 9 10 10 10 11 12 14 15 16 17 19 20 21 24 25 27 30 32 35 37 39 41 43 45 47 49 50 52 54 55 56 58 59 61 62 63 64 65 66 67 68 70 71 73 74 74 75 79 82 83 83 84 85 88 91 92 94 96 96 96 97 98 99 100 101 102 102 103 104 104 105
25 25 24 23 22 21 20 19 18 17 16 15 13 12 11 10 10 10 10 11 11 12 13 15 17 18 20 22 24 26 28 30 32 34 37 38 41 42 44 46 48 50 52 53 55 56 58 59 60 61 62 63 64 66 67 69 70 70 71 73 74 76 76 76 77 80 83 85 85 85 87 89 91 92 95 97 97 97 98 99 100 100 100 101 102 103 104 104
27 26 25 23 22 21 20 18 17 16 14 13 11 9 8 8 9 9 10 11 13 15 16 18 20 22 24 26 28 30 32 34 35 37 39 41 43 45 47 49 50 52 54 55 56 57 58 60 61 62 63 64 65 67 68 69 71 71 72 72 73 74 76 76 76 76 78 81 84 84 84 85 87 88 91 94 97 97 96 97 98 99 99 100 101 102 103 103
26 25 24 22 20 19 17 16 14 12 11 10 9 8 8 9 10 11 13 14 16 18 20 21 23 25 27 29 32 33 35 37 39 41 43 44 46 48 49 51 52 53 55 56 58 59 60 61 62 63 64 64 64 65 65 65 67 68 70 70 71 72 74 75 76 76 76 78 82 84 83 82 83 85 87 90 94 96 96 96 96 98 99 99 100 101 102 102
24 23 21 19 17 15 13 12 10 10 10 10 9 9 10 11 12 14 16 18 20 22 24 26 28 30 31 33 35 37 39 41 42 44 46 47 48 49 50 52 54 55 57 58 59 59 59 60 61 61 61 61 62 62 63 64 65 67 68 70 72 73 74 76 78 80 80 80 83 86 86 84 84 86 88 90 93 95 97 98 97 97 98 99 100 101 101 101
21 19 18 16 14 12 11 10 10 10 10 9 10 10 12 14 16 17 20 22 23 25 27 29 32 34 36 38 39 40 42 43 44 45 46 47 49 51 52 53 55 56 56 56 57 57 57 58 58 59 60 61 61 63 64 66 67 69 70 72 74 76 77 79 81 83 83 84 86 90 91 91 89 90 92 94 95 96 98 100 100 100 100 101 101 102 102 102
17 15 14 12 11 9 9 9 9 9 10 10 12 13 15 17 19 21 23 25 27 29 31 33 35 36 38 39 41 42 42 43 44 46 48 49 51 52 52 52 53 53 53 54 55 56 56 58 59 60 62 64 65 65 66 67 68 70 71 72 74 75 76 78 80 82 84 84 86 90 93 95 93 92 94 97 98 100 101 101 102 103 103 103 104 104 104 104
13 11 10 9 8 8 9 9 10 11 12 14 15 17 19 21 22 24 27 29 32 34 35 36 37 38 39 40 40 41 43 44 46 48 49 50 50 50 50 51 51 52 53 54 56 58 59 60 62 63 63 64 66 66 67 68 69 70 71 71 73 75 76 78 80 82 83 83 85 89 93 97 96 93 94 97 99 101 103 104 105 106 106 106 107 108 108 108
9 8 8 8 8 9 10 11 12 13 15 17 18 20 22 24 26 29 31 33 34 35 35 36 37 38 39 40 41 43 45 47 47 48 48 48 49 50 51 53 54 56 58 60 61 61 62 63 63 63 63 64 65 67 69 70 71 72 73 73 73 76 77 79 81 83 83 81 82 86 91 96 98 96 95 97 99 101 103 105 107 108 109 109 109 110 110 111
7 7 7 8 9 10 11 12 14 16 18 19 21 23 25 28 29 31 32 33 34 35 36 37 38 39 41 43 45 46 47 47 47 47 47 48 49 50 51 52 52 54 55 57 59 60 61 62 62 63 63 64 64 66 69 72 73 74 76 77 76 76 77 77 79 83 83 81 81 85 89 94 97 98 98 98 100 102 103 105 106 107 108 109 109 110 110 111
6 6 7 8 10 11 13 15 17 19 21 23 24 27 28 29 29 31 33 34 35 36 37 39 41 43 45 45 46 45 45 45 45 45 46 46 46 46 46 46 47 47 47 50 54 58 61 62 63 64 65 67 66 66 68 71 74 76 77 80 81 81 80 78 78 81 82 81 82 86 90 93 95 97 98 99 100 102 103 104 104 104 105 106 107 108 109 110
7 9 10 11 13 15 17 19 21 23 25 27 29 30 29 29 31 33 34 35 36 38 40 42 44 45 45 44 44 43 43 43 43 44 44 44 44 45 46 46 47 48 48 49 52 56 60 62 64 65 67 69 70 69 67 68 72 75 78 80 82 84 84 81 80 81 80 77 77 81 87 89 91 94 95 97 99 100 101 102 102 102 102 102 103 104 106 107
11 13 14 16 18 19 21 23 25 27 29 30 30 29 29 31 34 34 36 37 39 42 44 45 44 43 43 42 42 42 42 43 43 43 43 43 44 44 45 46 48 49 51 52 53 55 59 62 63 65 66 67 69 70 69 69 70 73 75 78 80 83 85 85 84 85 85 80 76 78 83 85 87 90 92 95 97 98 99 100 101 101 100 100 100 100 101 102
14 16 17 20 21 23 25 27 28 29 30 29 28 29 32 34 35 36 38 41 42 43 43 43 42 41 41 41 41 41 42 42 43 43 43 43 43 44 45 46 48 50 51 52 52 54 59 63 65 66 68 68 69 70 70 70 70 71 73 75 77 80 84 86 86 87 89 88 84 83 85 87 88 90 93 96 97 97 98 99 99 100 99 99 98 98 98 99
17 19 21 22 24 25 27 27 29 30 29 28 29 32 34 35 36 39 41 42 42 42 41 40 40 40 40 40 40 40 41 41 42 42 43 43 44 45 46 47 49 49 50 51 52 53 57 62 65 66 68 68 67 69 70 70 70 71 72 74 75 77 80 84 86 87 89 91 89 89 90 90 92 94 96 98 98 98 98 98 97 97 96 95 94 94 94 94
20 21 23 24 25 27 28 29 30 30 29 31 33 35 35 37 39 41 42 42 41 40 40 40 40 39 39 39 39 40 40 40 41 41 43 44 45 46 47 48 49 51 52 53 54 54 55 58 62 64 64 65 63 64 67 69 69 70 71 73 74 74 76 81 86 90 92 93 93 93 93 93 96 99 99 100 100 98 97 96 94 92 91 90 89 88 87 87
22 23 24 26 27 28 29 30 30 30 32 34 34 35 37 40 42 42 41 41 40 40 40 39 38 37 37 38 38 38 38 39 40 41 42 44 45 47 48 49 51 52 54 55 56 56 54 53 58 61 62 62 62 62 63 65 67 70 71 73 75 76 77 79 84 91 95 97 98 98 96 95 97 99 99 99 98 95 93 93 91 88 85 84 82 80 79 78
24 25 26 27 29 30 30 30 31 33 35 34 34 37 40 42 41 41 40 39 39 39 38 37 37 37 37 36 36 37 38 39 40 41 43 45 47 49 51 53 54 55 57 58 57 57 55 53 55 60 62 62 62 63 62 62 64 67 69 71 74 77 79 80 83 89 94 99 101 101 97 94 95 98 99 99 96 94 94 93 90 87 84 81 79 77 75 74
26 27 28 29 30 30 30 31 34 34 33 34 38 41 42 41 39 38 38 38 37 36 36 36 36 36 37 37 38 39 40 41 43 45 46 48 50 53 55 56 57 59 60 60 60 58 57 56 55 59 62 63 65 66 67 67 67 67 69 71 72 75 78 80 81 85 91 96 100 101 96 93 97 101 101 100 98 97 98 96 94 91 87 83 79 77 75 73
27 28 29 30 30 30 31 33 34 34 36 39 42 41 40 38 37 37 37 37 36 35 35 35 36 37 37 39 41 42 44 46 48 50 51 53 54 56 58 59 60 62 62 62 62 61 59 58 58 60 62 65 68 70 70 71 71 71 73 74 76 78 80 83 83 83 87 91 96 99 96 95 100 104 104 103 102 100 99 98 96 93 88 84 81 78 75 71
28 29 29 29 30 31 33 34 35 38 40 42 41 39 38 37 37 37 36 35 34 35 35 36 37 38 39 41 44 46 49 51 53 55 56 58 59 60 61 63 63 64 65 65 64 63 62 61 61 63 65 68 73 75 74 73 72 72 74 75 77 79 81 84 86 87 88 91 95 97 95 96 101 105 105 104 101 98 96 96 95 92 88 86 83 78 73 69
28 28 29 29 31 32 35 36 39 41 42 41 39 37 36 36 37 36 34 34 34 35 36 37 38 40 42 44 46 50 53 56 57 59 61 62 63 64 65 66 67 68 68 68 67 67 66 65 65 66 64 64 69 73 74 74 74 73 74 76 78 81 83 87 91 93 94 96 99 99 96 94 98 100 100 99 97 95 93 93 92 89 86 83 80 76 73 70
27 28 29 30 32 35 37 39 40 41 40 39 37 36 36 36 35 34 33 34 34 35 36 38 41 44 46 48 50 53 56 58 60 62 63 65 65 67 68 69 70 70 70 70 69 69 70 71 73 75 71 65 65 67 68 70 75 77 79 81 83 86 89 92 95 97 98 98 100 102 99 93 93 94 92 90 89 88 87 87 86 84 79 75 73 73 72 69
27 28 30 32 35 36 38 40 41 40 39 37 36 36 35 34 33 33 33 34 35 36 39 43 45 48 50 53 56 57 59 60 62 64 65 66 68 69 71 71 71 72 72 72 72 72 74 76 78 84 85 81 79 80 78 78 81 84 86 88 90 91 93 96 98 100 102 100 99 102 100 93 90 89 87 84 82 80 79 78 77 74 71 69 69 70 69 66
28 30 32 34 36 38 39 41 40 38 36 35 35 34 33 32 32 33 34 35 37 40 43 46 49 51 54 57 59 60 61 63 64 66 68 69 70 71 72 72 73 73 74 75 75 76 78 79 81 86 89 89 88 90 89 89 89 90 91 93 94 95 97 99 100 102 105 103 100 99 100 95 88 85 83 80 78 76 74 72 68 65 63 63 65 66 66 64
29 31 33 35 37 39 40 40 38 36 34 34 33 32 32 32 33 34 36 38 40 43 46 49 51 54 56 58 59 61 64 67 68 69 71 72 73 74 74 74 75 76 77 78 79 80 82 82 83 86 89 89 90 92 92 91 91 92 94 95 96 97 98 99 101 104 106 106 102 98 97 94 88 83 81 79 76 73 71 66 61 58 58 59 59 60 61 61
30 32 34 36 38 39 39 37 35 33 33 32 31 31 31 33 34 35 37 40 43 46 49 51 53 55 57 58 60 62 65 68 69 71 73 74 75 76 77 77 78 79 80 81 82 84 86 86 85 86 89 90 91 93 93 92 93 93 95 96 96 96 98 100 102 104 105 105 103 99 95 93 89 84 80 78 76 74 70 62 56 54 56 57 56 56 57 57
30 33 36 38 39 38 36 34 32 32 31 31 30 31 33 34 35 37 39 42 46 48 50 52 54 56 58 61 62 64 66 67 69 72 74 75 76 77 78 79 80 81 82 84 86 87 89 89 86 86 89 91 92 94 94 94 94 94 95 95 95 95 98 100 101 102 101 100 100 99 95 92 91 87 82 78 76 75 70 61 54 53 55 55 54 54 54 53
32 35 37 38 38 36 33 31 30 30 30 29 30 32 34 35 36 39 42 45 48 50 52 53 55 58 62 64 65 67 68 70 72 74 76 77 79 79 80 81 82 83 85 87 90 91 91 90 89 87 88 90 92 94 94 94 94 95 95 94 93 93 94 97 99 100 98 96 97 97 94 90 89 87 82 78 76 75 70 61 54 53 54 53 52 52 51 50
33 36 37 37 36 33 30 29 29 29 29 29 31 33 34 36 38 41 44 47 50 51 53 55 58 62 64 66 67 68 70 72 74 77 79 81 82 83 84 84 84 85 88 90 92 93 93 92 91 89 88 89 91 93 94 94 94 96 95 93 91 91 91 95 99 100 99 99 97 97 96 93 91 88 83 78 76 75 71 62 55 53 53 52 51 50 50 49
34 36 37 35 32 29 28 27 27 28 29 30 32 33 35 37 40 43 46 49 50 51 53 56 60 63 64 66 68 70 71 73 75 79 82 84 86 87 88 88 88 88 91 92 94 95 95 95 94 93 92 92 92 94 97 97 95 95 95 93 92 92 91 94 99 101 100 102 101 99 97 95 92 88 82 76 73 73 69 60 53 50 48 47 48 48 47 47
Wind_Direction
240 243 245 247 250 254 257 260 263 265 266 268 269 270 271 272 273 275 277 278 279 281 282 283 283 284 284 284 285 286 286 287 287 287 286 286 286 286 285 284 283 282 282 281 281 281 281 281 282 282 282 281 281 281 281 280 279 279 278 277 277 277 276 276 276 275 274 273 273 272 272 271 271 272 271 271 271 270 269 269 268 266 265 265 265 265 266 266
241 244 246 248 251 254 256 259 262 265 268 269 270 271 271 272 274 276 277 278 280 282 283 283 283 284 285 287 288 289 289 289 289 288 288 288 287 287 286 285 285 284 284 284 285 285 285 285 285 284 284 283 283 282 281 280 279 278 277 277 277 277 276 277 277 276 275 274 272 272 272 272 272 272 271 269 269 268 267 267 265 264 263 263 263 264 265 266
242 245 247 249 251 253 256 259 262 265 267 268 269 270 271 273 274 276 276 278 280 282 283 284 285 286 287 289 290 291 291 290 290 289 289 289 288 288 287 287 287 287 287 287 287 287 287 287 287 287 286 285 284 283 281 280 279 278 278 278 278 277 277 278 278 277 276 274 273 273 273 272 272 271 269 268 267 266 265 265 265 263 263 263 263 264 265 267
243 246 248 249 251 253 255 258 260 263 265 267 268 269 271 272 274 275 277 278 280 281 283 284 287 288 289 290 290 290 290 290 289 289 289 289 288 288 288 289 289 289 289 290 290 290 290 289 289 288 287 286 285 284 282 281 279 278 278 278 278 278 278 278 278 277 276 274 273 273 272 271 270 268 267 265 265 267 266 265 265 265 266 266 266 266 266 268
244 246 248 250 251 253 256 258 260 262 264 266 267 268 269 271 273 275 277 279 280 282 284 287 288 289 289 289 288 288 288 288 288 289 289 289 289 290 290 291 291 292 292 292 291 291 291 290 290 289 288 287 286 284 283 281 280 279 279 279 279 279 279 279 278 277 275 274 272 271 271 271 271 269 267 265 266 268 269 268 267 268 269 269 270 269 269 269
245 247 250 252 254 256 257 259 260 262 263 264 266 267 269 271 273 274 276 279 281 284 286 288 288 288 288 288 288 288 288 288 289 289 290 290 291 291 292 292 292 292 292 292 291 291 291 291 290 290 289 288 287 285 284 283 282 282 282 282 282 282 282 280 278 277 276 274 272 272 273 274 274 274 272 270 268 268 269 270 270 270 271 270 270 270 270 270
246 249 252 254 255 257 258 259 260 262 263 265 266 268 269 271 272 275 278 281 284 285 286 286 286 286 287 288 288 289 289 289 290 290 290 291 291 292 292 292 292 292 291 291 291 291 291 291 291 290 290 289 289 289 288 287 286 286 286 285 285 286 284 281 280 279 279 278 277 276 277 278 278 278 278 276 274 271 270 272 272 272 271 270 270 270 270 270
247 250 252 254 255 256 258 259 260 262 264 265 266 268 269 271 274 277 281 283 284 284 284 284 285 287 288 288 289 289 289 289 290 291 291 292 292 292 292 291 291 291 291 291 291 291 292 293 294 295 295 295 296 295 295 294 294 294 294 292 291 290 287 287 287 287 285 284 283 282 282 282 280 279 280 279 277 274 272 272 273 273 272 271 270 270 269 269
247 249 252 253 254 256 257 258 260 262 264 266 267 269 272 275 277 279 280 281 282 282 283 284 286 287 287 288 288 289 289 290 291 291 291 291 291 291 292 292 292 293 293 293 294 294 296 297 299 300 300 301 302 302 301 300 300 299 297 295 293 290 289 290 289 288 287 286 284 283 282 280 278 277 277 277 276 275 273 272 271 271 272 272 271 270 269 269
245 247 250 251 253 255 256 259 261 263 265 267 269 272 274 276 277 278 279 280 281 283 284 285 285 286 287 287 288 289 290 290 290 290 291 291 292 294 294 294 294 294 295 295 295 295 296 297 299 301 301 302 302 301 300 298 297 294 292 292 291 288 287 286 286 286 285 284 283 283 281 279 276 275 274 274 274 273 272 271 270 270 270 270 271 270 270 269
241 244 247 250 253 255 258 261 263 265 267 269 271 273 274 276 277 279 280 281 283 283 284 284 285 286 287 288 288 289 289 289 290 290 292 293 295 295 294 293 293 294 294 293 293 295 296 298 301 302 302 303 302 301 301 300 298 297 296 295 295 294 293 292 291 290 289 287 286 285 285 283 280 278 276 275 275 274 273 273 272 271 270 270 270 271 271 271
242 245 250 253 256 259 261 263 265 267 269 270 272 274 276 277 279 280 281 282 282 283 283 284 285 286 287 287 288 288 288 289 290 292 293 293 292 291 291 292 293 293 293 295 297 300 303 305 306 306 306 306 305 304 303 302 301 301 301 299 298 297 296 296 295 294 293 292 290 289 288 287 284 282 279 277 277 276 275 274 274 273 272 272 272 272 273 273
248 252 255 257 259 261 263 265 267 269 271 272 274 276 277 278 279 280 280 281 281 282 283 284 285 285 285 285 285 286 288 290 290 290 289 289 290 293 296 297 298 299 301 303 306 307 309 308 308 307 306 306 305 305 305 304 304 303 303 303 301 299 297 296 295 294 293 292 291 290 289 287 287 285 282 281 280 279 278 277 276 276 275 275 275 275 276 276
254 256 257 259 261 263 265 268 270 272 273 275 276 276 277 278 278 279 279 280 281 281 282 282 282 282 283 284 287 289 290 290 290 292 295 299 304 306 307 308 307 306 306 307 308 308 309 309 309 308 308 308 308 307 307 306 306 305 304 303 302 300 298 296 295 294 292 290 289 287 285 284 284 283 282 281 281 280 280 280 279 279 279 279 279 279 279 279
256 258 260 262 264 267 269 271 272 274 275 275 276 276 276 277 277 278 278 278 278 278 278 278 279 282 285 287 291 292 293 298 303 309 314 315 315 314 312 311 310 309 309 310 311 312 312 312 311 310 309 307 306 305 304 302 301 300 299 297 296 295 294 292 291 290 289 287 285 283 281 279 279 278 279 279 279 279 279 279 280 280 281 281 281 280 280 279
257 260 263 265 268 270 271 272 273 273 274 274 274 274 274 274 274 274 274 275 275 275 277 278 280 284 288 294 302 308 312 318 321 322 321 318 316 315 314 313 313 313 313 312 311 310 309 307 305 303 301 299 298 297 296 295 293 292 291 290 289 288 288 288 287 286 285 284 283 281 278 277 276 276 276 277 277 277 278 279 279 279 279 278 278 277 276 276
260 262 264 266 267 268 269 270 270 270 270 270 270 269 269 268 267 267 268 269 273 276 281 288 297 305 313 323 328 328 327 326 325 324 322 321 318 317 316 313 311 309 308 306 304 303 301 299 297 296 295 294 293 293 292 291 291 291 290 289 288 287 285 284 284 284 283 283 282 281 280 278 277 276 276 277 277 277 278 278 279 278 277 276 275 274 273 273
256 257 259 259 260 261 261 262 262 262 262 261 260 259 258 257 254 253 256 264 294 329 348 354 352 348 344 343 337 333 331 329 327 325 322 320 317 314 311 307 304 302 300 299 298 297 296 295 295 294 294 293 293 293 292 291 290 290 290 289 289 289 288 286 285 284 285 285 284 284 283 282 280 278 278 278 278 277 277 277 277 277 276 276 275 274 274 273
241 243 243 243 241 239 235 231 226 221 215 211 205 188 163 135 110 91 72 58 45 32 23 15 3 353 348 343 337 333 332 328 324 320 316 312 309 306 303 301 300 298 297 296 296 296 296 295 295 296 295 295 294 294 293 292 291 290 290 289 288 289 290 289 287 286 286 287 287 287 286 285 283 282 282 281 280 279 278 277 277 276 276 276 276 276 275 275
189 194 193 191 184 175 165 154 143 131 120 112 108 102 96 87 78 70 61 51 41 31 18 5 352 346 343 339 335 330 326 321 315 311 307 305 303 301 299 298 297 297 296 296 296 296 297 297 296 296 296 295 295 294 294 294 293 293 292 292 290 290 290 290 289 288 287 286 286 286 286 285 284 284 284 283 282 281 281 280 279 278 277 276 276 276 276 276
132 135 134 133 130 125 120 116 111 107 102 96 91 85 80 74 66 58 51 42 28 13 1 351 345 340 335 330 325 320 315 311 307 304 303 302 301 299 298 298 297 297 297 297 297 297 297 297 297 297 297 297 297 296 296 296 295 295 295 294 293 292 292 291 290 289 288 287 286 285 285 285 285 285 284 283 283 282 282 281 281 280 279 279 278 278 277 277
113 111 110 109 107 104 102 100 98 96 92 87 80 71 64 57 47 36 27 19 7 356 347 339 334 329 324 318 312 309 307 305 303 302 302 302 301 301 301 301 301 301 301 300 301 301 301 301 301 300 300 300 299 299 298 297 296 296 295 294 293 292 291 291 290 290 289 288 287 286 285 285 285 286 285 284 283 282 282 281 280 280 279 279 278 278 277 277
104 102 101 100 99 98 96 94 92 88 83 78 71 61 52 41 29 19 10 359 346 338 330 324 320 316 313 310 307 306 305 304 303 303 303 303 303 304 304 304 305 305 305 305 305 304 303 303 302 302 301 301 300 300 299 298 297 295 294 293 292 291 290 289 288 288 288 288 287 286 285 285 285 286 285 285 284 283 282 282 281 280 280 279 278 278 277 276
101 99 97 96 95 93 91 87 85 81 78 72 63 52 39 21 7 358 349 339 331 324 317 313 312 311 310 309 308 308 307 307 307 307 307 308 308 308 309 308 308 307 307 306 305 304 304 303 303 302 301 301 300 299 299 298 297 296 294 293 292 291 291 290 288 287 287 287 287 286 286 286 286 286 286 285 285 284 283 282 282 281 280 279 279 278 277 276
98 96 95 92 90 87 85 82 80 76 71 59 45 28 10 355 344 337 329 322 321 317 313 312 312 312 312 312 312 312 313 313 313 313 313 314 313 313 312 310 309 308 307 306 306 306 305 304 303 302 301 301 300 299 297 296 295 294 294 294 294 293 293 293 292 291 290 290 289 288 287 287 287 287 286 286 286 286 286 284 283 282 282 281 279 278 277 276
94 93 91 89 86 83 78 73 66 55 45 31 16 0 348 337 326 322 320 317 317 317 317 317 318 319 319 319 319 319 319 319 319 318 318 317 315 314 312 311 310 309 308 307 307 306 305 304 303 303 302 301 300 299 299 298 298 298 299 299 299 299 299 298 298 298 297 296 295 294 293 292 292 291 290 290 290 290 289 289 287 286 285 284 283 282 281 280
90 88 86 83 79 72 62 50 39 29 18 3 348 335 327 323 320 319 319 318 319 320 322 323 324 325 325 324 323 323 323 322 321 320 318 316 315 313 313 312 311 310 309 308 307 306 306 305 305 305 305 305 306 306 306 306 306 305 305 305 304 303 302 302 301 300 299 298 297 296 296 295 295 294 293 292 292 291 290 290 290 290 289 288 287 287 286 285
84 81 78 74 66 54 40 28 16 4 351 338 330 325 322 322 322 321 321 322 324 327 327 328 327 326 326 325 325 325 324 322 321 319 318 317 316 315 314 313 312 311 311 310 310 309 309 310 311 312 312 312 311 311 309 308 306 305 305 303 302 301 300 299 298 297 297 296 294 294 294 294 294 293 292 292 291 290 290 290 290 290 290 290 290 289 289 289
78 75 68 57 44 29 16 4 351 343 337 332 329 328 327 325 326 328 330 332 332 332 331 329 328 327 327 327 326 325 323 322 322 321 320 319 317 316 315 315 315 314 314 314 315 315 316 316 316 316 314 313 311 309 307 305 305 303 302 300 299 298 297 296 296 295 295 294 293 293 293 293 293 292 290 290 289 288 289 289 289 289 290 290 289 289 290 290
68 57 45 30 18 7 356 346 341 338 334 333 333 331 330 332 334 336 337 335 333 331 330 329 328 328 328 327 326 325 325 324 324 322 321 320 320 320 321 322 323 323 322 322 322 321 320 318 315 313 311 309 307 305 304 303 303 300 298 297 296 295 295 295 295 294 293 292 292 291 291 292 292 291 289 287 286 286 286 286 287 288 289 289 289 289 289 289
48 36 23 10 1 351 342 339 338 337 337 337 335 335 338 339 339 338 336 334 332 331 331 330 330 330 329 329 329 329 328 327 327 326 327 328 329 329 329 328 328 328 327 324 321 318 315 313 310 308 307 306 304 304 303 303 301 300 298 296 295 293 292 292 292 291 290 290 289 288 288 288 288 288 288 286 285 285 285 285 285 286 287 288 288 289 288 289
28 14 5 356 348 342 342 342 341 341 341 339 339 341 342 339 337 338 336 334 334 333 333 333 332 332 332 333 332 331 331 331 331 332 333 333 332 329 327 325 324 322 320 317 315 313 312 310 309 307 306 305 303 303 303 302 302 300 299 297 296 293 291 289 287 286 285 285 286 285 285 286 286 286 287 286 286 286 286 286 286 286 287 287 288 288 288 288
4 359 355 349 347 347 346 345 345 345 343 343 343 341 338 338 340 340 338 336 336 335 335 335 335 335 335 334 334 334 335 335 335 335 334 332 328 326 324 322 320 318 315 314 313 312 310 309 309 308 306 304 303 302 301 300 298 298 297 296 296 295 294 292 289 287 285 283 284 285 285 285 285 286 286 286 287 287 288 288 289 289 289 288 288 288 287 287
358 356 353 351 350 349 347 348 348 346 345 345 340 336 340 345 344 340 338 337 337 337 338 338 338 338 337 338 339 339 339 338 336 334 331 328 326 325 323 320 317 316 315 314 314 314 311 309 308 308 307 305 306 307 306 305 303 302 302 302 302 302 301 301 299 297 295 292 292 291 291 290 290 290 290 290 291 291 292 293 293 292 292 292 291 290 289 288
356 354 353 352 350 348 349 349 346 346 345 339 334 339 348 348 342 339 339 339 339 340 341 341 340 341 342 343 343 341 339 336 334 331 329 327 325 322 319 317 316 315 315 316 317 320 320 317 314 315 315 314 315 316 315 313 311 310 309 309 308 307 306 306 306 305 304 303 302 301 299 298 297 297 296 295 295 296 296 295 295 295 295 294 293 292 291 290
354 354 353 350 348 348 348 346 346 346 340 335 341 350 350 344 340 340 341 341 342 343 343 344 345 345 346 344 342 339 337 335 332 330 328 327 325 323 321 320 319 319 320 322 323 325 328 325 322 322 322 322 323 322 319 317 315 315 314 313 311 311 311 310 309 308 306 305 305 304 303 302 302 301 300 300 300 300 299 298 297 297 297 296 294 293 292 291
353 351 349 347 347 347 345 346 347 342 339 346 353 351 344 341 341 342 344 345 346 347 348 349 349 348 346 343 341 339 336 334 332 331 329 328 327 327 327 326 327 328 328 330 330 331 333 331 326 325 325 325 325 322 320 321 321 319 317 315 314 314 314 313 311 309 307 306 306 305 306 307 306 306 305 304 303 302 301 301 301 300 299 298 296 295 293 292
349 347 347 347 347 346 347 348 344 342 350 356 351 343 342 343 345 346 348 349 350 351 352 351 349 347 345 343 340 337 335 333 333 332 332 333 333 334 334 334 335 336 336 336 335 334 335 333 328 326 325 325 324 323 324 326 325 323 322 321 321 319 317 315 313 311 310 310 309 309 310 310 309 307 306 305 304 305 305 305 304 303 302 300 299 298 296 295
347 347 347 347 346 348 349 347 346 352 356 350 342 342 346 347 349 351 352 353 354 354 353 351 349 346 344 342 339 336 335 335 335 335 337 339 341 341 342 342 341 341 341 340 339 337 336 335 332 330 329 329 327 325 326 326 325 325 326 326 325 323 321 320 318 317 315 313 311 310 311 312 311 309 309 309 310 311 311 309 309 308 307 306 305 304 303 302
346 347 347 347 348 350 349 350 354 355 347 341 343 348 350 351 353 355 356 357 357 355 353 351 348 347 345 342 341 340 340 341 341 343 345 346 348 348 348 347 346 345 344 342 341 340 339 338 336 336 336 336 332 330 329 329 328 328 327 327 326 324 323 320 319 318 316 313 311 310 313 317 317 315 314 315 316 317 315 314 313 312 311 310 309 308 307 306
346 348 348 348 350 351 352 354 354 347 342 345 350 351 353 355 357 358 359 359 357 355 352 350 349 348 347 346 346 346 347 348 349 350 351 351 352 351 350 350 349 348 347 345 344 343 342 341 340 340 341 341 338 337 337 337 335 332 331 329 327 324 321 319 316 315 313 313 313 315 320 324 321 318 318 319 319 318 316 314 313 312 312 312 312 311 309 306
347 349 349 351 353 353 354 353 349 345 348 352 352 354 357 360 0 1 1 358 356 353 352 353 352 351 351 352 352 352 353 353 354 354 354 354 354 353 353 353 352 351 350 348 347 345 345 344 344 344 345 347 346 342 341 340 337 334 332 330 328 325 323 321 319 318 318 319 319 321 325 325 322 320 320 320 319 317 315 314 313 313 314 314 314 312 308 304
349 350 352 355 354 353 352 350 348 349 352 352 354 359 2 2 3 2 359 356 355 355 356 357 355 355 355 355 355 356 357 357 357 357 357 356 356 356 356 356 355 354 353 352 350 349 347 346 345 344 345 349 349 346 344 343 339 336 334 333 331 330 329 328 327 326 326 325 324 324 326 326 322 320 320 319 318 317 316 314 313 314 315 315 314 311 307 304
350 353 356 355 353 352 351 349 349 351 353 354 359 4 4 4 3 360 357 358 359 -0 -0 359 358 359 358 358 358 359 360 360 359 359 358 358 358 358 358 358 357 357 355 354 353 352 351 349 348 345 343 343 343 341 340 340 340 339 338 337 337 336 335 333 331 328 327 326 325 325 326 326 323 321 320 319 317 316 314 312 312 314 316 316 312 308 306 307
354 357 357 353 352 352 350 349 351 353 355 360 5 6 5 3 0 359 0 3 3 3 2 2 2 2 1 1 2 2 2 2 1 0 0 359 359 359 358 359 359 358 357 356 355 355 354 353 352 349 346 345 344 342 341 342 343 343 342 341 341 340 338 335 331 329 327 327 327 326 326 327 325 323 322 320 317 315 313 312 314 318 318 315 310 307 308 309
359 359 355 352 352 350 349 351 354 356 360 5 8 6 4 1 0 3 6 7 6 6 6 6 5 4 5 5 4 4 3 3 3 2 1 0 360 360 359 359 359 359 358 357 357 357 357 356 355 352 349 349 349 348 347 347 346 345 344 343 343 342 339 335 332 329 327 328 329 327 327 327 327 325 324 322 320 318 316 316 320 322 318 313 310 310 310 310
360 356 353 352 350 350 352 354 357 360 4 8 8 4 2 3 6 9 9 8 8 8 8 8 7 7 8 7 7 6 6 5 5 4 3 2 1 0 0 0 360 359 359 359 359 359 359 358 357 355 352 351 351 350 349 349 347 346 346 345 344 343 339 335 332 329 328 329 330 329 329 328 328 329 328 326 323 320 319 322 326 324 317 312 312 312 311 311
357 353 352 351 350 351 355 357 360 4 8 9 6 4 5 8 11 11 10 10 10 10 9 9 9 9 9 9 9 9 8 7 6 4 3 3 2 1 1 1 0 0 0 0 0 1 360 358 358 358 354 352 352 351 350 349 348 347 347 345 344 342 338 335 332 330 330 330 330 330 331 331 331 332 331 330 326 322 322 327 331 326 318 315 316 315 313 313
353 351 351 350 351 354 357 360 4 8 9 8 6 8 11 12 12 11 11 12 12 11 10 10 11 10 10 9 9 8 8 7 5 4 3 3 3 2 1 1 1 1 1 1 1 1 0 358 358 359 357 354 353 351 350 350 349 347 346 345 344 342 339 336 332 330 330 331 331 332 334 334 334 334 334 333 329 324 325 331 335 329 322 320 319 317 315 315
351 351 351 351 353 357 359 3 7 10 9 8 10 12 14 14 13 12 12 13 12 11 11 11 11 10 10 9 7 6 6 5 4 4 3 3 3 2 2 2 2 2 2 2 1 1 0 359 358 359 358 356 354 352 351 350 349 348 346 344 343 341 339 336 332 331 332 334 334 335 335 336 336 335 336 336 331 326 327 334 337 332 326 324 322 319 317 315
351 351 351 352 355 358 2 7 10 10 10 12 14 15 15 14 13 13 13 13 13 12 11 11 11 10 9 8 6 5 4 3 2 2 1 2 2 2 2 2 2 3 3 2 1 0 360 359 358 358 358 357 355 353 351 350 350 349 345 343 342 340 339 338 334 333 335 337 338 338 338 338 338 337 337 338 333 327 328 334 337 333 330 328 324 321 319 317
351 350 351 353 357 0 6 10 12 12 13 16 16 16 14 14 14 15 14 13 12 12 11 11 11 10 8 7 5 3 3 2 2 1 0 0 1 2 2 2 3 3 3 2 1 360 359 359 358 358 358 357 355 353 353 351 350 349 345 343 342 339 339 341 338 336 338 340 340 341 340 339 338 337 337 338 334 328 327 333 336 333 331 330 325 322 319 317